Flag for Azerbaijan Weather past 2 weeks in Ganja, Azerbaijan

Now
73 °F

Partly sunny.


Feels Like: 77 °F
Forecast: 60 / 78 °F
Wind: 2 mph from Northeast

Location: Gyanca Airport

Current Time: Sep 23, 2014 at 3:43:05 PM

Latest Report: Sep 23, 2014 at 3:00 PM


Visibility: N/A

Pressure: 29.86 "Hg

Humidity: 57%

Dew point: 57 °F

Location of GanjaLocation

Historic Weather in Ganja — Graph

°F

Ganja temperature yesterday

Maximum temperature yesterday: 75 °F (at 3:30 PM)
Minimum temperature yesterday: 61 °F (at 4:30 AM)
Average temperature yesterday: 69 °F

Past Weeks' High & Low Weather Summary

 TemperatureHumidityPressure
High91 °F (Sep 10, 5:30 PM)94% (Sep 16, 7:00 AM)30.18 "Hg (Sep 16, 7:00 AM)
Low61 °F (Sep 19, 7:30 AM)26% (Sep 11, 6:00 PM)29.71 "Hg (Sep 9, 6:00 PM)
Average72 °F62%29.92 "Hg
* Reported Sep 8 2:00 PM — Sep 23 2:30 PM, Ganja, Weather by CustomWeather, © 2014

Note: Actual official high and low records may vary slightly from our data, if they occured in-between our weather recording intervals... More about our weather records

Advertising

Ganja weather history for previous 24 hours

 ConditionsComfort  
Time TempWeatherWind HumidityBarometerVisibility
2:30 PM
Sep 23
72 °FPartly sunny.3 mph65%29.86 "HgN/A
2:00 PM72 °FPartly sunny.2 mph61%29.89 "HgN/A
1:30 PM72 °FPartly sunny.2 mph65%29.89 "HgN/A
1:00 PM70 °FPartly sunny.5 mph73%29.89 "HgN/A
12:30 PM68 °FPartly sunny.7 mph78%29.89 "HgN/A
12:00 PM68 °FPartly sunny.7 mph83%29.92 "HgN/A
11:30 AM66 °FPartly sunny.3 mph83%29.92 "HgN/A
11:00 AM66 °FPartly sunny.3 mph83%29.92 "HgN/A
10:30 AM66 °FPartly sunny.6 mph83%29.92 "HgN/A
10:00 AM64 °FBroken clouds.6 mph88%29.92 "HgN/A
9:30 AM63 °FPartly cloudy.5 mph88%29.89 "HgN/A
9:00 AM63 °FPartly cloudy.2 mph88%29.89 "HgN/A
8:30 AM63 °FPartly cloudy.5 mph88%29.89 "HgN/A
8:00 AM63 °FPartly cloudy.5 mph88%29.89 "HgN/A
7:30 AM63 °FPartly cloudy.2 mph94%29.89 "HgN/A
7:00 AM63 °FPassing clouds.3 mph88%29.89 "HgN/A
6:30 AM63 °FPassing clouds.7 mph88%29.89 "HgN/A
6:00 AM63 °FPassing clouds.6 mph88%29.89 "HgN/A
5:30 AM61 °FPassing clouds.3 mph94%29.89 "HgN/A
5:00 AM63 °FPassing clouds.7 mph88%29.89 "HgN/A
4:30 AM63 °FPassing clouds.15 mph94%29.89 "HgN/A
4:00 AM64 °FSprinkles. Passing clouds.12 mph94%29.89 "HgN/A
3:30 AM64 °FPassing clouds.12 mph88%29.89 "HgN/A
3:00 AM64 °FPassing clouds.9 mph94%29.89 "HgN/A
2:30 AM66 °FThundershowers. Partly cloudy.7 mph83%29.89 "HgN/A
2:00 AM66 °FThundershowers. Partly cloudy.7 mph78%29.89 "HgN/A
1:30 AM66 °FThundershowers. Partly cloudy.14 mph83%29.86 "HgN/A
1:00 AM66 °FPassing clouds.7 mph88%29.89 "HgN/A
12:30 AM66 °FPassing clouds.5 mph83%29.92 "HgN/A
12:00 AM66 °FPassing clouds.5 mph83%29.89 "HgN/A
11:30 PM
Sep 22
66 °FPassing clouds.3 mph83%29.89 "HgN/A
11:00 PM68 °FPassing clouds.5 mph78%29.89 "HgN/A
10:30 PM68 °FPassing clouds.3 mph78%29.92 "HgN/A
10:00 PM68 °FPassing clouds.3 mph73%29.89 "HgN/A
9:30 PM70 °FScattered clouds.5 mph69%29.89 "HgN/A
9:00 PM70 °FScattered clouds.6 mph64%29.89 "HgN/A
8:30 PM72 °FScattered clouds.6 mph61%29.89 "HgN/A
8:00 PM72 °FScattered clouds.7 mph61%29.86 "HgN/A
7:30 PM73 °FScattered clouds.7 mph53%29.86 "HgN/A
7:00 PM73 °FScattered clouds.7 mph53%29.86 "HgN/A
6:30 PM75 °FScattered clouds.7 mph50%29.86 "HgN/A
6:00 PM75 °FScattered clouds.6 mph50%29.86 "HgN/A
5:30 PM75 °FScattered clouds.6 mph50%29.86 "HgN/A
5:00 PM75 °FScattered clouds.3 mph50%29.89 "HgN/A
4:30 PM75 °FScattered clouds.6 mph50%29.89 "HgN/A
4:00 PM73 °FScattered clouds.5 mph53%29.89 "HgN/A
3:30 PM75 °FScattered clouds.5 mph50%29.89 "HgN/A
3:00 PM73 °FScattered clouds.5 mph57%29.89 "HgN/A
Weather by CustomWeather, © 2014

See weather overviewHow to use our weather pages